[[{"header":{"parameterUnit":"m.s-1","parameterCategory":1,"la1":30.2991,"la2":30.254,"lo1":-89.0895,"lo2":-89.0444,"dy":0.0017,"dx":0.0017,"nx":28,"ny":28,"refTime":"2024-06-10T21:00:00:Z","depth":0,"parameterNumber":2,"parameterNumberName":"U-component_of_WINDS"},"data":[0,0,0,0,0,0,0,0,0,0,0,0,0,0,0,0,0,0,0,0,0,0,0,0,0,0,0,0,0,0,0,0,0,0,0,0,0,0,0,0,0,0,0,0,0,0,0,0,0,0,0,0,0,0,0,0,0,0,-0.61,-0.6099,0,-0.6071,-0.6071,-0.6071,-0.6016,-0.6015,-0.6014,-0.6013,-0.5985,-0.5985,-0.5985,0,0,0,0,0,0,0,0,0,0,0,0,0,-0.6109,-0.6109,-0.61,-0.6099,-0.6099,-0.6071,-0.6071,-0.607,-0.6017,-0.6015,-0.6014,-0.6013,-0.5985,-0.5985,-0.5985,0,0,0,0,0,0,0,0,0,0,0,0,0,-0.6095,-0.6109,-0.61,-0.6069,-0.6066,-0.6071,-0.6071,-0.607,-0.6017,-0.6015,-0.6014,-0.6012,-0.5985,-0.5985,-0.5985,-0.6019,0,0,-0.5986,-0.5987,0,0,0,0,0,0,0,0,-0.6096,-0.6095,-0.6074,-0.6071,-0.6068,-0.6046,-0.6063,-0.6053,-0.6017,-0.6035,-0.6013,-0.6011,-0.6006,-0.6005,-0.6003,-0.6018,-0.6017,-0.5986,-0.5987,-0.5987,-0.5987,0,0,0,0,0,0,0,-0.6097,-0.6096,-0.6088,-0.6073,-0.607,-0.6057,-0.6053,-0.6061,-0.603,-0.6034,-0.603,-0.6027,-0.6004,-0.6003,-0.6002,-0.6016,-0.5986,-0.5987,-0.5987,-0.5987,-0.6057,-0.6059,0,0,0,0,0,0,-0.6102,-0.6097,-0.6089,-0.6088,-0.6078,-0.6058,-0.6054,-0.6054,-0.603,-0.6025,-0.6028,-0.6025,-0.6003,-0.6002,-0.6001,-0.6039,-0.5987,-0.5987,-0.5987,-0.6056,-0.6058,-0.6059,0,0,0,0,0,0,-0.6103,-0.6102,-0.609,-0.6091,-0.6089,-0.6059,-0.6061,-0.6055,-0.6053,-0.6026,-0.602,-0.6032,-0.6002,-0.6,-0.6015,-0.6037,-0.5987,-0.5988,-0.6054,-0.6056,-0.6059,-0.6115,0,0,0,0,0,0,-0.6103,-0.6103,-0.6115,-0.6092,-0.6089,-0.6105,-0.6062,-0.6055,-0.6054,-0.6048,-0.6028,-0.6023,-0.6,-0.6015,-0.6015,-0.6036,-0.5988,-0.6052,-0.6055,-0.6058,-0.6111,-0.6119,-0.6126,0,0,0,0,0,-0.6104,-0.6132,-0.6116,-0.6115,-0.6103,-0.6106,-0.6105,-0.6077,-0.6056,-0.6068,-0.605,-0.6024,-0.6035,-0.6017,-0.6017,-0.6038,-0.605,-0.6054,-0.6058,-0.6107,-0.6117,-0.6126,0,0,0,0,0,0,-0.6158,-0.6128,-0.611,-0.6131,-0.6122,-0.6097,-0.6112,-0.6089,-0.6085,-0.6081,-0.6047,-0.6043,-0.6062,-0.6052,-0.6032,-0.607,-0.6038,-0.6042,-0.6076,-0.6085,-0.6092,-0.6094,-0.5988,0,0,0,0,0,-0.6173,-0.6177,-0.6151,-0.6173,-0.6169,-0.6141,-0.6141,-0.6121,-0.611,-0.6106,-0.609,-0.608,-0.6081,-0.6083,-0.6082,-0.6109,-0.6104,-0.6124,-0.6132,-0.6138,-0.6142,-0.6155,-0.6164,-0.6072,-0.6072,-0.6072,0,0,-0.6203,-0.6187,-0.6192,-0.6183,-0.6173,-0.6179,-0.6138,-0.6146,-0.615,-0.6107,-0.612,-0.6108,-0.6095,-0.6116,-0.6124,-0.6108,-0.6166,-0.6143,-0.6148,-0.6148,-0.616,-0.6169,-0.6177,-0.6074,-0.6074,-0.6073,0,0,-0.6261,-0.6249,-0.6266,-0.6257,-0.6243,-0.6224,-0.6228,-0.6207,-0.6198,-0.621,-0.6178,-0.6182,-0.6185,-0.6177,-0.6174,-0.6229,-0.6205,-0.623,-0.6269,-0.6283,-0.629,-0.6296,-0.6316,-0.6324,-0.6234,-0.6234,-0.6234,0,-0.63,-0.6307,-0.6277,-0.6287,-0.6285,-0.6246,-0.6263,-0.6256,-0.6242,-0.6241,-0.6223,-0.6226,-0.6214,-0.6233,-0.6247,-0.6245,-0.6249,-0.6232,-0.6291,-0.6297,-0.6303,-0.6321,-0.6329,-0.6237,-0.6237,-0.6236,-0.6236,0,-0.6356,-0.6362,-0.6377,-0.6365,-0.6364,-0.6377,-0.635,-0.6352,-0.6333,-0.6317,-0.633,-0.6315,-0.6311,-0.6314,-0.6295,-0.633,-0.632,-0.6297,-0.6264,-0.6315,-0.6332,-0.6339,-0.6242,-0.6241,-0.624,-0.6239,0,0,-0.6447,-0.6418,-0.6424,-0.6418,-0.64,-0.6404,-0.6416,-0.6412,-0.6415,-0.6407,-0.6416,-0.642,-0.6398,-0.6394,-0.6374,-0.6386,-0.6431,-0.6361,-0.636,-0.6375,-0.6469,-0.6487,-0.6496,-0.6415,-0.6416,-0.6417,-0.6471,0,-0.6501,-0.6519,-0.6493,-0.6517,-0.6522,-0.6486,-0.6496,-0.6486,-0.6472,-0.6474,-0.6458,-0.6461,-0.6432,-0.643,-0.644,-0.6424,-0.645,-0.6419,-0.6424,-0.6424,-0.6428,-0.6504,-0.6523,-0.6574,-0.6477,-0.6478,-0.6479,0,-0.6565,-0.656,-0.6585,-0.6566,-0.6567,-0.6576,-0.6571,-0.6573,-0.6562,-0.655,-0.6546,-0.6522,-0.6533,-0.6501,-0.6516,-0.6496,-0.6496,-0.6488,-0.649,-0.6489,-0.6454,-0.6506,-0.6589,-0.6597,-0.6489,-0.6488,-0.6487,0,-0.6629,-0.6629,-0.6644,-0.664,-0.6617,-0.6625,-0.6616,-0.6603,-0.6602,-0.6597,-0.6596,-0.6593,-0.6591,-0.659,-0.6565,-0.6545,-0.6583,-0.655,-0.6574,-0.6575,-0.6583,-0.6583,-0.6668,-0.6584,-0.6584,-0.6584,-0.6584,0,-0.6691,-0.6708,-0.6672,-0.6681,-0.6699,-0.6669,-0.6688,-0.6675,-0.6664,-0.667,-0.6639,-0.6645,-0.6613,-0.6616,-0.6598,-0.6613,-0.6612,-0.6603,-0.6598,-0.6606,-0.6607,-0.6606,-0.6601,-0.6586,-0.6585,-0.6585,-0.6585,0,-0.6765,-0.6742,-0.6756,-0.6733,-0.6728,-0.6742,-0.6723,-0.6731,-0.6714,-0.6723,-0.6723,-0.6697,-0.67,-0.6676,-0.6673,-0.6661,-0.6685,-0.6673,-0.6688,-0.6685,-0.6711,-0.6708,-0.6797,-0.6808,-0.6717,-0.6718,-0.6719,0,-0.6807,-0.6819,-0.6798,-0.6799,-0.6792,-0.6795,-0.6795,-0.6766,-0.6767,-0.6754,-0.6764,-0.6764,-0.6762,-0.6767,-0.6749,-0.6747,-0.6735,-0.6767,-0.6735,-0.6742,-0.6736,-0.6735,-0.6736,-0.6773,-0.6774,-0.6775,-0.6776,0,-0.6883,-0.687,-0.687,-0.6866,-0.6866,-0.6861,-0.6855,-0.6858,-0.6827,-0.6829,-0.6831,-0.683,-0.6828,-0.6828,-0.6823,-0.6814,-0.679,-0.6786,-0.6792,-0.68,-0.6808,-0.6804,-0.6706,-0.6784,-0.6783,-0.6783,-0.6782,-0.6782,-0.6941,-0.695,-0.6937,-0.6938,-0.693,-0.6925,-0.6931,-0.6915,-0.6916,-0.6912,-0.6895,-0.69,-0.6889,-0.6879,-0.6872,-0.6876,-0.6861,-0.6869,-0.6871,-0.6873,-0.6878,-0.6808,-0.6875,-0.6875,-0.6875,-0.6874,-0.6874,0,-0.7015,-0.7005,-0.7006,-0.6998,-0.6999,-0.6976,-0.6968,-0.697,-0.6975,-0.6966,-0.6965,-0.6968,-0.6968,-0.6949,-0.6947,-0.6954,-0.6943,-0.6955,-0.6954,-0.6952,-0.6892,-0.6887,-0.6963,-0.6963,-0.6963,-0.6963,-0.6963,-0.6963,-0.7054,-0.7068,-0.7055,-0.7065,-0.7054,-0.7059,-0.7056,-0.7051,-0.7044,-0.7048,-0.7048,-0.7036,-0.7023,-0.702,-0.7019,-0.7014,-0.7015,-0.703,-0.7021,-0.6965,-0.6956,-0.6948,-0.6943,-0.703,-0.703,-0.7081,-0.7081,-0.7081]},{"header":{"parameterUnit":"m.s-1","parameterCategory":1,"la1":30.2991,"la2":30.254,"lo1":-89.0895,"lo2":-89.0444,"dy":0.0017,"dx":0.0017,"nx":28,"ny":28,"refTime":"2024-06-10T21:00:00:Z","depth":0,"parameterNumber":3,"parameterNumberName":"V-component_of_WINDS"},"data":[0,0,0,0,0,0,0,0,0,0,0,0,0,0,0,0,0,0,0,0,0,0,0,0,0,0,0,0,0,0,0,0,0,0,0,0,0,0,0,0,0,0,0,0,0,0,0,0,0,0,0,0,0,0,0,0,0,0,1.1179,1.1179,0,1.1168,1.1168,1.1168,1.1152,1.1152,1.1152,1.1151,1.1139,1.1139,1.1139,0,0,0,0,0,0,0,0,0,0,0,0,0,1.1185,1.1185,1.1179,1.1179,1.1179,1.1168,1.1168,1.1168,1.1152,1.1152,1.1152,1.1151,1.1139,1.1139,1.1139,0,0,0,0,0,0,0,0,0,0,0,0,0,1.1179,1.1185,1.1179,1.117,1.1169,1.1168,1.1168,1.1168,1.1152,1.1152,1.1151,1.1151,1.1139,1.1139,1.1139,1.1147,0,0,1.1139,1.1139,0,0,0,0,0,0,0,0,1.118,1.1179,1.1171,1.117,1.1169,1.1161,1.1166,1.1161,1.1152,1.1158,1.1151,1.1151,1.1147,1.1146,1.1145,1.1146,1.1146,1.1139,1.1139,1.1139,1.1139,0,0,0,0,0,0,0,1.118,1.1179,1.1174,1.1171,1.117,1.1166,1.1164,1.1165,1.1155,1.1158,1.1157,1.1156,1.1146,1.1145,1.1145,1.1145,1.1139,1.1139,1.1139,1.1139,1.1152,1.1153,0,0,0,0,0,0,1.1182,1.118,1.1175,1.1174,1.1174,1.1166,1.1164,1.1164,1.1155,1.1153,1.1156,1.1155,1.1145,1.1145,1.1144,1.1152,1.1139,1.1139,1.1139,1.1152,1.1152,1.1153,0,0,0,0,0,0,1.1182,1.1182,1.1175,1.1177,1.1176,1.1166,1.1166,1.1164,1.1163,1.1154,1.1152,1.1157,1.1145,1.1144,1.1146,1.1152,1.1139,1.1139,1.1151,1.1152,1.1153,1.1169,0,0,0,0,0,0,1.1183,1.1182,1.1185,1.1177,1.1176,1.1178,1.1166,1.1164,1.1163,1.1161,1.1154,1.1152,1.1145,1.1147,1.1146,1.1151,1.1139,1.1151,1.1152,1.1153,1.1168,1.117,1.1172,0,0,0,0,0,1.1183,1.1189,1.1185,1.1184,1.1179,1.1178,1.1177,1.1169,1.1163,1.1166,1.116,1.1152,1.1151,1.1147,1.1146,1.1152,1.1151,1.1152,1.1152,1.1167,1.1169,1.1172,0,0,0,0,0,0,1.1198,1.1188,1.1183,1.1187,1.1184,1.1176,1.1179,1.1172,1.117,1.1168,1.1158,1.1156,1.116,1.1156,1.1151,1.1158,1.115,1.1151,1.1161,1.1163,1.1165,1.1166,1.1138,0,0,0,0,0,1.1201,1.1202,1.1193,1.1198,1.1197,1.1188,1.1187,1.1181,1.1177,1.1175,1.117,1.1165,1.1164,1.1163,1.1162,1.1167,1.1165,1.1171,1.1173,1.1174,1.1175,1.1178,1.118,1.1156,1.1156,1.1156,0,0,1.1209,1.1204,1.1205,1.1201,1.1197,1.1198,1.1187,1.1188,1.1188,1.1175,1.1177,1.1173,1.1167,1.1171,1.1173,1.1168,1.1181,1.1175,1.1177,1.1177,1.1179,1.1181,1.1183,1.1157,1.1157,1.1157,0,0,1.1224,1.122,1.1224,1.122,1.1215,1.121,1.1211,1.1203,1.12,1.1202,1.1193,1.1193,1.1191,1.1187,1.1185,1.1199,1.1192,1.1199,1.1209,1.1212,1.1214,1.1216,1.1221,1.1223,1.12,1.12,1.12,0,1.1234,1.1235,1.1226,1.1228,1.1226,1.1215,1.1219,1.1216,1.1211,1.121,1.1205,1.1203,1.1198,1.1201,1.1205,1.1204,1.1204,1.12,1.1215,1.1216,1.1217,1.1222,1.1224,1.1201,1.1201,1.1201,1.1201,0,1.1248,1.1248,1.1252,1.1247,1.1246,1.1249,1.124,1.124,1.1235,1.1229,1.1231,1.1226,1.1223,1.1223,1.1218,1.1226,1.1223,1.1217,1.1208,1.1221,1.1225,1.1227,1.1202,1.1202,1.1201,1.1201,0,0,1.1271,1.1262,1.1263,1.1261,1.1255,1.1255,1.1257,1.1255,1.1255,1.1252,1.1253,1.1252,1.1246,1.1244,1.1238,1.1241,1.1252,1.1234,1.1233,1.1237,1.1261,1.1266,1.1268,1.1247,1.1248,1.1248,1.1261,0,1.1284,1.1287,1.128,1.1285,1.1286,1.1275,1.1277,1.1274,1.1269,1.1269,1.1263,1.1263,1.1255,1.1254,1.1256,1.125,1.1257,1.1249,1.1248,1.1249,1.125,1.127,1.1275,1.1288,1.1263,1.1263,1.1263,0,1.13,1.1298,1.1303,1.1297,1.1297,1.1299,1.1296,1.1296,1.1292,1.1288,1.1286,1.1279,1.1281,1.1272,1.1274,1.1269,1.1269,1.1266,1.1266,1.1266,1.1257,1.127,1.1292,1.1294,1.1266,1.1266,1.1265,0,1.1317,1.1315,1.1318,1.1317,1.131,1.1311,1.1308,1.1304,1.1303,1.13,1.13,1.1297,1.1296,1.1295,1.1287,1.1282,1.129,1.1281,1.1287,1.1287,1.1289,1.1289,1.1312,1.1289,1.1289,1.1289,1.1289,0,1.1332,1.1336,1.1326,1.1328,1.1331,1.1323,1.1327,1.1323,1.1319,1.132,1.1311,1.1312,1.1302,1.1302,1.1296,1.1298,1.1298,1.1295,1.1293,1.1296,1.1296,1.1295,1.1294,1.1289,1.1289,1.1289,1.1289,0,1.1351,1.1345,1.1347,1.1341,1.1339,1.1342,1.1336,1.1338,1.1332,1.1334,1.1334,1.1326,1.1325,1.1317,1.1315,1.1311,1.1316,1.1313,1.1318,1.1317,1.1323,1.1323,1.1346,1.1348,1.1324,1.1324,1.1324,0,1.1362,1.1365,1.1358,1.1358,1.1356,1.1356,1.1355,1.1347,1.1346,1.1342,1.1344,1.1343,1.1341,1.1341,1.1335,1.1333,1.133,1.1338,1.1329,1.1332,1.133,1.133,1.133,1.1339,1.134,1.134,1.134,0,1.1381,1.1378,1.1377,1.1376,1.1375,1.1373,1.1371,1.1371,1.1362,1.1362,1.1362,1.136,1.1358,1.1357,1.1354,1.1351,1.1344,1.1343,1.1344,1.1347,1.135,1.1348,1.1323,1.1342,1.1342,1.1342,1.1342,1.1342,1.1397,1.1399,1.1395,1.1394,1.1392,1.139,1.1391,1.1386,1.1385,1.1383,1.1378,1.1379,1.1374,1.137,1.1367,1.1367,1.1363,1.1365,1.1366,1.1366,1.1368,1.135,1.1367,1.1367,1.1367,1.1367,1.1367,0,1.1416,1.1413,1.1413,1.141,1.1409,1.1403,1.14,1.14,1.1401,1.1397,1.1396,1.1396,1.1395,1.1389,1.1387,1.1388,1.1385,1.1388,1.1388,1.1388,1.1371,1.1371,1.1391,1.1391,1.1391,1.1391,1.1391,1.1391,1.1426,1.1429,1.1425,1.1427,1.1424,1.1424,1.1423,1.1421,1.1419,1.1419,1.1418,1.1414,1.141,1.1408,1.1406,1.1405,1.1404,1.1409,1.1406,1.1391,1.1389,1.1386,1.1385,1.1409,1.1409,1.1422,1.1422,1.1422]}]]